Terminal Aerodrome Forecast
Issued by NWS Boston, MA

Home | Current Version | Previous Version | Text Only | Print | Product List | Glossary On
Versions: 1 2 3 4 5 6 7 8 9 10 11 12 13 14 15 16 17 18 19 20 21 22 23 24 25 26 27 28 29 30 31 32 33 34 35 36 37 38 39 40 41 42 43
529
FTUS41 KBOX 122327
TAFBDL
TAF
KBDL 122327Z 1300/1406 17007KT P6SM OVC100
     FM130900 26004KT P6SM BKN040
     FM131200 30008KT P6SM BKN040
     FM131400 31015G26KT P6SM BKN070
     FM132000 31018G35KT P6SM SCT035
     FM132200 31018G37KT P6SM SCT250=

USA.gov is the U.S. government's official web portal to all federal, state and local government web resources and services.